[[{"header":{"parameterUnit":"m.s-1","parameterCategory":1,"la1":30.2991,"la2":30.254,"lo1":-89.0895,"lo2":-89.0444,"dy":0.0017,"dx":0.0017,"nx":28,"ny":28,"refTime":"2026-02-27T03:00:00:Z","depth":0,"parameterNumber":2,"parameterNumberName":"U-component_of_WINDS"},"data":[0,0,0,0,0,0,0,0,0,0,0,0,0,0,0,0,0,0,0,0,0,0,0,0,0,0,0,0,0,0,0,0,0,0,0,0,0,0,0,0,0,0,0,0,0,0,0,0,0,0,0,0,0,0,0,0,0,0,0.4374,0.4374,0,0.4352,0.4351,0.4351,0.4275,0.4273,0.4272,0.427,0.4254,0.4255,0.4256,0,0,0,0,0,0,0,0,0,0,0,0,0,0.4357,0.4358,0.4374,0.4374,0.4374,0.4352,0.4351,0.4351,0.4275,0.4273,0.4271,0.4269,0.4253,0.4255,0.4256,0,0,0,0,0,0,0,0,0,0,0,0,0,0.4353,0.4358,0.4374,0.4333,0.4329,0.4352,0.4351,0.4351,0.4276,0.4273,0.4271,0.4268,0.4253,0.4254,0.4256,0.4319,0,0,0.4261,0.4262,0,0,0,0,0,0,0,0,0.4353,0.4353,0.4339,0.4336,0.4332,0.4313,0.4339,0.434,0.4276,0.4296,0.427,0.4267,0.4276,0.4276,0.4277,0.4318,0.4317,0.4262,0.4263,0.4263,0.4264,0,0,0,0,0,0,0,0.4353,0.4354,0.4365,0.4339,0.4335,0.4317,0.4314,0.4339,0.4301,0.4294,0.4289,0.4287,0.4273,0.4276,0.4276,0.4317,0.4262,0.4263,0.4264,0.4265,0.4408,0.4411,0,0,0,0,0,0,0.4359,0.4355,0.4366,0.4365,0.4336,0.432,0.4316,0.4322,0.4301,0.4295,0.4289,0.4283,0.4274,0.4274,0.4276,0.4349,0.4263,0.4265,0.4266,0.4406,0.4409,0.4412,0,0,0,0,0,0,0.4359,0.436,0.4367,0.4358,0.4358,0.4323,0.433,0.4323,0.4325,0.4296,0.429,0.4298,0.4272,0.4273,0.4308,0.4347,0.4266,0.4267,0.4403,0.4407,0.4411,0.4495,0,0,0,0,0,0,0.4358,0.4361,0.4383,0.4359,0.4358,0.4399,0.4332,0.4324,0.4328,0.432,0.4303,0.4298,0.427,0.4306,0.431,0.4348,0.4269,0.4399,0.4404,0.4409,0.4489,0.4502,0.4513,0,0,0,0,0,0.4358,0.4409,0.4385,0.4387,0.4385,0.4401,0.4401,0.4366,0.4331,0.4354,0.4335,0.4299,0.4341,0.431,0.4314,0.4353,0.4396,0.4403,0.4409,0.4484,0.4499,0.4513,0,0,0,0,0,0,0.4442,0.4406,0.4378,0.4423,0.4415,0.4388,0.4417,0.4384,0.4388,0.4381,0.4339,0.4336,0.4378,0.4368,0.4334,0.4413,0.4363,0.437,0.4418,0.4433,0.4445,0.4448,0.427,0,0,0,0,0,0.4465,0.4479,0.4447,0.449,0.4487,0.4453,0.4458,0.4431,0.4423,0.4421,0.4404,0.44,0.4412,0.4421,0.4431,0.4485,0.4482,0.4514,0.4526,0.4536,0.4545,0.4574,0.4589,0.4433,0.4432,0.4432,0,0,0.4515,0.4496,0.4509,0.4506,0.4498,0.4515,0.4451,0.4472,0.4486,0.4424,0.4457,0.4444,0.4436,0.4482,0.4501,0.4476,0.4586,0.4544,0.4552,0.4555,0.4582,0.4597,0.4611,0.4437,0.4436,0.4435,0,0,0.4614,0.46,0.4635,0.4627,0.4613,0.4589,0.4597,0.4575,0.4564,0.4595,0.4549,0.4565,0.4586,0.4582,0.4584,0.4679,0.4646,0.4683,0.4747,0.4777,0.4789,0.48,0.4837,0.485,0.469,0.469,0.469,0,0.4679,0.4701,0.4658,0.4682,0.4683,0.4624,0.466,0.4655,0.4646,0.4649,0.4619,0.4645,0.4635,0.468,0.4703,0.4704,0.4714,0.4687,0.479,0.4801,0.481,0.4845,0.4859,0.4695,0.4694,0.4694,0.4694,0,0.4782,0.4798,0.4828,0.4819,0.4823,0.4853,0.4815,0.4824,0.4796,0.4776,0.4809,0.4794,0.48,0.4807,0.4781,0.4849,0.4833,0.4797,0.4747,0.4831,0.4863,0.4876,0.4702,0.47,0.4699,0.4698,0,0,0.4939,0.4902,0.4914,0.4909,0.4889,0.4902,0.4928,0.4932,0.4942,0.4937,0.4961,0.4978,0.4944,0.4946,0.4917,0.4943,0.5022,0.4904,0.4903,0.4929,0.5099,0.5129,0.5145,0.4998,0.5,0.5002,0.51,0,0.5036,0.5079,0.504,0.5092,0.5107,0.505,0.5074,0.5065,0.5046,0.5058,0.5037,0.5052,0.5004,0.5005,0.5027,0.5008,0.5056,0.5,0.5023,0.5025,0.5031,0.5161,0.5193,0.5287,0.5112,0.5114,0.5116,0,0.5156,0.5154,0.5208,0.5183,0.5188,0.521,0.521,0.522,0.5209,0.5193,0.5193,0.5157,0.5184,0.5131,0.5168,0.5131,0.5137,0.5129,0.5131,0.5136,0.5079,0.5173,0.5316,0.5332,0.5135,0.5133,0.5132,0,0.5269,0.528,0.5313,0.531,0.5281,0.5298,0.5287,0.5273,0.5277,0.5277,0.5279,0.5283,0.5286,0.529,0.5257,0.5221,0.53,0.5243,0.5291,0.5292,0.5314,0.5314,0.5464,0.5311,0.5311,0.5311,0.531,0,0.5385,0.5421,0.5363,0.5385,0.5423,0.5376,0.5416,0.5399,0.5386,0.5405,0.5354,0.5373,0.5326,0.534,0.5314,0.535,0.5351,0.5341,0.5335,0.5348,0.535,0.5355,0.535,0.5314,0.5314,0.5313,0.5312,0,0.552,0.5483,0.5516,0.5484,0.5477,0.5507,0.5481,0.55,0.5475,0.5499,0.5502,0.5465,0.5479,0.5444,0.5454,0.5436,0.5489,0.547,0.5493,0.5489,0.5539,0.5537,0.5702,0.5722,0.5553,0.5554,0.5556,0,0.5599,0.5624,0.5594,0.5602,0.5593,0.5605,0.5609,0.5563,0.5569,0.5556,0.5578,0.5586,0.5591,0.5616,0.5591,0.5598,0.5581,0.5638,0.5582,0.5595,0.5586,0.5587,0.5591,0.5652,0.5654,0.5656,0.5657,0,0.5743,0.5722,0.5728,0.5727,0.5732,0.5729,0.5724,0.5733,0.5684,0.5693,0.5705,0.5709,0.5716,0.5727,0.5727,0.5717,0.5681,0.5673,0.5686,0.5702,0.5716,0.5712,0.5529,0.5671,0.567,0.5669,0.5668,0.5668,0.5855,0.5875,0.5857,0.5865,0.5855,0.585,0.5867,0.5843,0.5851,0.5853,0.5825,0.5843,0.583,0.5826,0.582,0.5835,0.5809,0.5826,0.5831,0.5837,0.5847,0.5709,0.5834,0.5834,0.5833,0.5833,0.5833,0,0.5999,0.5984,0.5991,0.5983,0.599,0.5949,0.594,0.595,0.5965,0.5955,0.5959,0.5974,0.5982,0.5957,0.5963,0.5979,0.5963,0.5983,0.5984,0.5983,0.5867,0.5858,0.5996,0.5996,0.5996,0.5996,0.5996,0.5996,0.6076,0.6109,0.6086,0.6113,0.6098,0.6113,0.6112,0.6108,0.6099,0.6117,0.6123,0.6104,0.6089,0.6092,0.6099,0.6091,0.6098,0.6125,0.6112,0.6006,0.599,0.5975,0.5967,0.6125,0.6126,0.6226,0.6227,0.6228]},{"header":{"parameterUnit":"m.s-1","parameterCategory":1,"la1":30.2991,"la2":30.254,"lo1":-89.0895,"lo2":-89.0444,"dy":0.0017,"dx":0.0017,"nx":28,"ny":28,"refTime":"2026-02-27T03:00:00:Z","depth":0,"parameterNumber":3,"parameterNumberName":"V-component_of_WINDS"},"data":[0,0,0,0,0,0,0,0,0,0,0,0,0,0,0,0,0,0,0,0,0,0,0,0,0,0,0,0,0,0,0,0,0,0,0,0,0,0,0,0,0,0,0,0,0,0,0,0,0,0,0,0,0,0,0,0,0,0,1.0936,1.0937,0,1.1044,1.1046,1.1047,1.103,1.1028,1.1026,1.1024,1.1133,1.1138,1.1142,0,0,0,0,0,0,0,0,0,0,0,0,0,1.0713,1.0718,1.0936,1.0937,1.0939,1.1044,1.1046,1.1047,1.103,1.1028,1.1025,1.1023,1.1132,1.1137,1.1143,0,0,0,0,0,0,0,0,0,0,0,0,0,1.0815,1.0719,1.0936,1.0943,1.0945,1.1044,1.1046,1.1048,1.103,1.1028,1.1025,1.1022,1.113,1.1137,1.1144,1.1242,0,0,1.1165,1.1168,0,0,0,0,0,0,0,0,1.0809,1.0823,1.0941,1.0943,1.0945,1.1021,1.1007,1.1113,1.1031,1.0998,1.1024,1.1021,1.1098,1.1107,1.1134,1.1247,1.1252,1.1165,1.117,1.1173,1.1175,0,0,0,0,0,0,0,1.0802,1.0818,1.0979,1.0942,1.0945,1.094,1.0952,1.1027,1.1062,1.1001,1.1,1.1013,1.1099,1.1127,1.1136,1.1254,1.1165,1.1171,1.1176,1.1178,1.1456,1.1459,0,0,0,0,0,0,1.0793,1.0812,1.0975,1.0982,1.0869,1.0947,1.0959,1.0999,1.1061,1.1068,1.1015,1.1011,1.1117,1.1128,1.114,1.1262,1.1173,1.1179,1.1183,1.1453,1.1457,1.146,0,0,0,0,0,0,1.0788,1.0808,1.0971,1.0897,1.0918,1.0954,1.0998,1.1003,1.1031,1.1072,1.1078,1.1038,1.1115,1.113,1.1218,1.1266,1.1182,1.1189,1.1449,1.1454,1.1458,1.1506,0,0,0,0,0,0,1.0782,1.0806,1.0844,1.0898,1.0922,1.1048,1.1001,1.1007,1.1044,1.104,1.1095,1.1102,1.1114,1.1207,1.1225,1.1274,1.1194,1.1445,1.1451,1.1457,1.1501,1.1512,1.1522,0,0,0,0,0,1.0774,1.0853,1.0846,1.0866,1.097,1.105,1.1064,1.1077,1.1047,1.1086,1.1113,1.11,1.1257,1.1217,1.1236,1.1288,1.1442,1.1449,1.1456,1.1496,1.151,1.1522,0,0,0,0,0,0,1.0803,1.086,1.0854,1.0952,1.0997,1.1047,1.1097,1.1091,1.1144,1.1139,1.1151,1.1164,1.1254,1.1278,1.1233,1.1388,1.1345,1.1357,1.1369,1.1382,1.1393,1.1387,1.12,0,0,0,0,0,1.082,1.0881,1.0927,1.1009,1.1032,1.1061,1.1096,1.1102,1.1149,1.1168,1.12,1.1246,1.1305,1.1344,1.1401,1.1503,1.1516,1.1548,1.1558,1.1567,1.1578,1.1636,1.1652,1.1484,1.1484,1.1484,0,0,1.0858,1.0896,1.0934,1.1016,1.1052,1.1115,1.1077,1.1144,1.1192,1.1177,1.1264,1.1289,1.134,1.1436,1.148,1.146,1.1627,1.1576,1.1583,1.1589,1.1645,1.1661,1.1675,1.1489,1.1488,1.1487,0,0,1.0959,1.0993,1.1067,1.1104,1.1158,1.1177,1.1194,1.1246,1.1263,1.1349,1.1341,1.1396,1.1498,1.1536,1.1569,1.1685,1.1676,1.1702,1.176,1.1816,1.183,1.1841,1.1886,1.1902,1.1712,1.1712,1.1712,0,1.0999,1.1095,1.1105,1.1176,1.1213,1.1203,1.1279,1.1313,1.1383,1.1409,1.1385,1.1514,1.1548,1.1654,1.1682,1.1708,1.173,1.1698,1.1827,1.1839,1.185,1.1893,1.1909,1.1715,1.1715,1.1715,1.1714,0,1.1142,1.1209,1.1261,1.1331,1.1374,1.1446,1.1468,1.151,1.1511,1.1532,1.1621,1.1661,1.1727,1.1752,1.1753,1.1859,1.1845,1.1823,1.1782,1.1869,1.191,1.1926,1.172,1.1719,1.1718,1.1717,0,0,1.1267,1.1342,1.1362,1.1395,1.1454,1.1505,1.1576,1.1642,1.1679,1.1727,1.1789,1.1875,1.1857,1.1894,1.1899,1.1948,1.2042,1.1922,1.1923,1.1946,1.2164,1.2182,1.2201,1.2035,1.2038,1.204,1.2161,0,1.1377,1.1506,1.1518,1.1633,1.1696,1.1687,1.1749,1.1793,1.1814,1.1869,1.1892,1.1955,1.1923,1.1946,1.1994,1.2021,1.2087,1.2011,1.2094,1.2097,1.2086,1.2222,1.2242,1.2353,1.2176,1.2179,1.2181,0,1.1523,1.1578,1.17,1.1753,1.1779,1.1836,1.1898,1.1951,1.1999,1.2011,1.2053,1.2052,1.2126,1.2079,1.2183,1.2131,1.2165,1.2183,1.2188,1.22,1.2147,1.2241,1.2389,1.2407,1.2205,1.2203,1.2201,0,1.1607,1.171,1.1798,1.1825,1.1887,1.1928,1.1955,1.2001,1.2041,1.2094,1.212,1.218,1.2215,1.2262,1.2278,1.2241,1.2381,1.2335,1.2395,1.2395,1.2429,1.2427,1.2588,1.2443,1.2443,1.2443,1.2442,0,1.1732,1.1808,1.1837,1.1891,1.1976,1.1988,1.2072,1.2097,1.2138,1.2197,1.2191,1.2246,1.2262,1.232,1.2332,1.2418,1.2432,1.2445,1.2448,1.2448,1.2447,1.2474,1.2468,1.2447,1.2446,1.2445,1.2445,0,1.1841,1.1863,1.1959,1.201,1.2025,1.2085,1.2129,1.2182,1.2201,1.2276,1.2294,1.2325,1.2393,1.2413,1.2493,1.2502,1.2604,1.2597,1.2588,1.259,1.2651,1.2646,1.2838,1.2865,1.2698,1.27,1.2701,0,1.1921,1.198,1.2038,1.2078,1.2108,1.2171,1.2212,1.2225,1.2268,1.2328,1.2374,1.2441,1.2497,1.2606,1.2636,1.2698,1.2696,1.2758,1.2705,1.2704,1.2702,1.27,1.2707,1.277,1.2772,1.2773,1.2774,0,1.2062,1.2071,1.213,1.2194,1.2243,1.2293,1.2341,1.2374,1.2394,1.2442,1.2513,1.2556,1.2639,1.2707,1.2771,1.2798,1.2792,1.279,1.2808,1.2811,1.2805,1.2814,1.2621,1.2787,1.2786,1.2785,1.2784,1.2783,1.2163,1.2216,1.2266,1.2332,1.237,1.2416,1.2468,1.2495,1.2554,1.2625,1.2628,1.2706,1.2753,1.2838,1.2869,1.293,1.2911,1.2936,1.2943,1.2951,1.2958,1.2792,1.294,1.294,1.294,1.2939,1.2939,0,1.2307,1.2339,1.24,1.2469,1.2521,1.2509,1.2562,1.2607,1.2675,1.2721,1.2776,1.2857,1.2923,1.2958,1.3023,1.3065,1.3064,1.3082,1.3082,1.3089,1.2969,1.2949,1.3083,1.3083,1.3083,1.3083,1.3083,1.3083,1.2389,1.2479,1.2493,1.2602,1.2632,1.2709,1.2741,1.2784,1.282,1.2913,1.2968,1.299,1.3032,1.31,1.316,1.3168,1.3195,1.3217,1.3223,1.3111,1.3097,1.3083,1.3065,1.3221,1.3221,1.3339,1.334,1.3341]}]]